SWA636 KTUS-KPHX

Flight info

Callsign SWA636
Flight time 0h 30m
Altitude 22000
Route TFD PXR
Aircraft B738/M-SDE3/STD

Departure

Time 2026-04-22 17:45
Airport Tucson International Airport (KTUS)

Arrival

Time 2026-04-22 18:15
Airport Phoenix Sky Harbor International Airport (KPHX)
Time Latitude Longitude Altitude Speed Heading
2026-04-22 17:25 32.11857 -110.93677 2606 ft 0 kts 355°
2026-04-22 17:32 32.11839 -110.93676 2607 ft 4 kts 355°
2026-04-22 17:33 32.11816 -110.93674 2607 ft 4 kts 355°
2026-04-22 17:33 32.11810 -110.93673 2607 ft 0 kts 355°
2026-04-22 17:39 32.11786 -110.93758 2606 ft 11 kts 240°
2026-04-22 17:40 32.11772 -110.93856 2605 ft 15 kts 295°
2026-04-22 17:40 32.11849 -110.93967 2603 ft 20 kts 315°
2026-04-22 17:40 32.11946 -110.94080 2600 ft 18 kts 315°
2026-04-22 17:40 32.12032 -110.94181 2596 ft 16 kts 314°
2026-04-22 17:41 32.12118 -110.94280 2592 ft 19 kts 315°
2026-04-22 17:41 32.12223 -110.94405 2588 ft 21 kts 315°
2026-04-22 17:41 32.12327 -110.94525 2583 ft 20 kts 316°
2026-04-22 17:41 32.12393 -110.94634 2580 ft 11 kts 260°
2026-04-22 17:42 32.12374 -110.94669 2580 ft 0 kts 227°
2026-04-22 17:43 32.12366 -110.94680 2580 ft 3 kts 227°
2026-04-22 17:44 32.12324 -110.94729 2580 ft 11 kts 212°
2026-04-22 17:44 32.12224 -110.94659 2583 ft 45 kts 135°
2026-04-22 17:44 32.11768 -110.94125 2601 ft 138 kts 135°
2026-04-22 17:44 32.10970 -110.93175 3112 ft 179 kts 134°
2026-04-22 17:45 32.10012 -110.92085 3846 ft 208 kts 140°
2026-04-22 17:45 32.08829 -110.90921 4651 ft 240 kts 140°
2026-04-22 17:45 32.07466 -110.89579 5448 ft 273 kts 140°
2026-04-22 17:45 32.06014 -110.88166 6167 ft 274 kts 140°
2026-04-22 17:46 32.04481 -110.86865 6797 ft 275 kts 153°
2026-04-22 17:46 32.02665 -110.86257 7418 ft 277 kts 174°
2026-04-22 17:46 32.00748 -110.86460 8046 ft 279 kts 194°
2026-04-22 17:46 31.99010 -110.87454 8672 ft 282 kts 215°
2026-04-22 17:47 31.97644 -110.89088 9307 ft 285 kts 229°
2026-04-22 17:47 31.96392 -110.90903 9973 ft 287 kts 230°
2026-04-22 17:47 31.95131 -110.92736 10614 ft 289 kts 230°
2026-04-22 17:47 31.93870 -110.94566 11243 ft 297 kts 230°
2026-04-22 17:48 31.92574 -110.96463 11902 ft 299 kts 233°
2026-04-22 17:48 31.91678 -110.98672 12507 ft 299 kts 253°
2026-04-22 17:48 31.91468 -111.01065 13118 ft 301 kts 271°
2026-04-22 17:48 31.91945 -111.03472 13742 ft 305 kts 288°
2026-04-22 17:49 31.92748 -111.05789 14381 ft 306 kts 289°
2026-04-22 17:49 31.93561 -111.08070 14987 ft 306 kts 289°
2026-04-22 17:49 31.94429 -111.10363 15588 ft 309 kts 295°
2026-04-22 17:49 31.95781 -111.12346 16199 ft 315 kts 315°
2026-04-22 17:50 31.97619 -111.13734 16819 ft 321 kts 334°
2026-04-22 17:50 31.99717 -111.14602 17460 ft 323 kts 339°
2026-04-22 17:50 32.01843 -111.15421 18068 ft 323 kts 339°
2026-04-22 17:50 32.03967 -111.16222 18678 ft 324 kts 339°
2026-04-22 17:51 32.06108 -111.17014 19290 ft 324 kts 339°
2026-04-22 17:51 32.08252 -111.17789 19885 ft 325 kts 339°
2026-04-22 17:51 32.10406 -111.18551 20473 ft 325 kts 340°
2026-04-22 17:51 32.12585 -111.19305 21059 ft 325 kts 340°
2026-04-22 17:52 32.14721 -111.20026 21565 ft 327 kts 340°
2026-04-22 17:52 32.16927 -111.20757 21960 ft 326 kts 340°
2026-04-22 17:52 32.19115 -111.21472 22067 ft 329 kts 340°
2026-04-22 17:52 32.21316 -111.22189 22077 ft 333 kts 340°
2026-04-22 17:53 32.23586 -111.23072 22122 ft 358 kts 329°
2026-04-22 17:53 32.25793 -111.24541 22147 ft 371 kts 324°
2026-04-22 17:53 32.27850 -111.26300 22086 ft 361 kts 309°
2026-04-22 17:53 32.29346 -111.28567 22103 ft 344 kts 292°
2026-04-22 17:54 32.30213 -111.31161 22102 ft 332 kts 279°
2026-04-22 17:54 32.31137 -111.33682 22111 ft 342 kts 291°
2026-04-22 17:54 32.32294 -111.36165 22116 ft 343 kts 291°
2026-04-22 17:54 32.33490 -111.38674 22107 ft 344 kts 291°
2026-04-22 17:55 32.34670 -111.41141 22098 ft 344 kts 291°
2026-04-22 17:55 32.35858 -111.43629 22113 ft 344 kts 291°
2026-04-22 17:55 32.37030 -111.46105 22107 ft 344 kts 291°
2026-04-22 17:55 32.38204 -111.48560 22106 ft 344 kts 293°
2026-04-22 17:56 32.39389 -111.51003 22109 ft 344 kts 292°
2026-04-22 17:56 32.40571 -111.53460 22096 ft 337 kts 292°
2026-04-22 17:56 32.41692 -111.55793 22080 ft 321 kts 292°
2026-04-22 17:56 32.42792 -111.58113 21575 ft 322 kts 292°
2026-04-22 17:57 32.43886 -111.60420 21137 ft 321 kts 292°
2026-04-22 17:57 32.44991 -111.62746 20678 ft 321 kts 292°
2026-04-22 17:57 32.46086 -111.65064 20222 ft 320 kts 291°
2026-04-22 17:57 32.47460 -111.67236 19730 ft 331 kts 311°
2026-04-22 17:58 32.49353 -111.68812 19274 ft 339 kts 330°
2026-04-22 17:58 32.51583 -111.69697 18847 ft 342 kts 345°
2026-04-22 17:58 32.53922 -111.70174 18415 ft 343 kts 350°
2026-04-22 17:58 32.56279 -111.70528 17972 ft 342 kts 352°
2026-04-22 17:59 32.58648 -111.70840 17524 ft 342 kts 352°
2026-04-22 17:59 32.60992 -111.71133 17079 ft 341 kts 353°
2026-04-22 17:59 32.63331 -111.71420 16640 ft 340 kts 353°
2026-04-22 17:59 32.65690 -111.71707 16191 ft 339 kts 353°
2026-04-22 18:00 32.67233 -111.71895 15900 ft 338 kts 353°
2026-04-22 18:00 32.70316 -111.72269 15311 ft 336 kts 353°
2026-04-22 18:00 32.72635 -111.72550 14881 ft 334 kts 354°
2026-04-22 18:00 32.74937 -111.72829 14451 ft 332 kts 354°
2026-04-22 18:01 32.77217 -111.73106 14005 ft 330 kts 354°
2026-04-22 18:01 32.79510 -111.73392 13567 ft 328 kts 354°
2026-04-22 18:01 32.81784 -111.73665 13136 ft 326 kts 354°
2026-04-22 18:01 32.84021 -111.73935 12725 ft 323 kts 354°
2026-04-22 18:02 32.86258 -111.74206 12317 ft 320 kts 354°
2026-04-22 18:02 32.88452 -111.74473 11903 ft 317 kts 354°
2026-04-22 18:02 32.90610 -111.74737 11428 ft 303 kts 354°
2026-04-22 18:02 32.92632 -111.74985 10953 ft 286 kts 354°
2026-04-22 18:03 32.94552 -111.75220 10457 ft 274 kts 355°
2026-04-22 18:03 32.96408 -111.75446 9950 ft 264 kts 355°
2026-04-22 18:03 32.98194 -111.75663 9447 ft 256 kts 355°
2026-04-22 18:03 32.99929 -111.75874 8954 ft 249 kts 355°
2026-04-22 18:04 33.01622 -111.76080 8468 ft 244 kts 355°
2026-04-22 18:04 33.03289 -111.76283 7979 ft 239 kts 355°
2026-04-22 18:04 33.04921 -111.76482 7499 ft 234 kts 355°
2026-04-22 18:04 33.06538 -111.76679 7133 ft 236 kts 355°
2026-04-22 18:05 33.08187 -111.76881 6791 ft 239 kts 355°
2026-04-22 18:05 33.09840 -111.77083 6453 ft 243 kts 355°
2026-04-22 18:05 33.11525 -111.77289 6111 ft 246 kts 354°
2026-04-22 18:05 33.13231 -111.77499 5775 ft 248 kts 354°
2026-04-22 18:06 33.14940 -111.77708 5491 ft 248 kts 354°
2026-04-22 18:06 33.16663 -111.77920 5212 ft 247 kts 354°
2026-04-22 18:06 33.18356 -111.78127 4933 ft 247 kts 354°
2026-04-22 18:06 33.20071 -111.78338 4679 ft 245 kts 354°
2026-04-22 18:07 33.21757 -111.78545 4437 ft 244 kts 354°
2026-04-22 18:07 33.23435 -111.78751 4185 ft 242 kts 355°
2026-04-22 18:07 33.25083 -111.78954 4095 ft 234 kts 355°
2026-04-22 18:07 33.26655 -111.79144 4073 ft 222 kts 357°
2026-04-22 18:08 33.28160 -111.79189 4096 ft 208 kts 360°
2026-04-22 18:08 33.29570 -111.79218 4096 ft 199 kts 360°
2026-04-22 18:08 33.30965 -111.79246 4087 ft 203 kts 360°
2026-04-22 18:08 33.32379 -111.79273 4086 ft 205 kts 360°
2026-04-22 18:09 33.33814 -111.79298 4082 ft 206 kts 360°
2026-04-22 18:09 33.35241 -111.79322 3921 ft 208 kts 360°
2026-04-22 18:09 33.36689 -111.79345 3717 ft 206 kts 360°
2026-04-22 18:09 33.38131 -111.79367 3538 ft 203 kts 360°
2026-04-22 18:10 33.39511 -111.79388 3505 ft 193 kts 360°
2026-04-22 18:10 33.40804 -111.79407 3476 ft 180 kts 360°
2026-04-22 18:10 33.42046 -111.79425 3497 ft 179 kts 359°
2026-04-22 18:10 33.43241 -111.79842 3501 ft 183 kts 330°
2026-04-22 18:11 33.44282 -111.80724 3495 ft 184 kts 309°
2026-04-22 18:11 33.44775 -111.82080 3496 ft 181 kts 270°
2026-04-22 18:11 33.44483 -111.83491 3507 ft 168 kts 248°
2026-04-22 18:11 33.44105 -111.84751 3462 ft 155 kts 248°
2026-04-22 18:12 33.43980 -111.86033 3226 ft 157 kts 272°
2026-04-22 18:12 33.44047 -111.87345 3049 ft 157 kts 272°
2026-04-22 18:12 33.44073 -111.88222 2922 ft 158 kts 268°
2026-04-22 18:12 33.44059 -111.89977 2659 ft 158 kts 269°
2026-04-22 18:13 33.44065 -111.91296 2453 ft 158 kts 269°
2026-04-22 18:13 33.44070 -111.92593 2247 ft 157 kts 270°
2026-04-22 18:13 33.44071 -111.93904 2039 ft 156 kts 270°
2026-04-22 18:13 33.44073 -111.95201 1829 ft 155 kts 270°
2026-04-22 18:14 33.44076 -111.96494 1622 ft 154 kts 270°
2026-04-22 18:14 33.44079 -111.97765 1418 ft 154 kts 270°
2026-04-22 18:14 33.44079 -111.99065 1202 ft 155 kts 271°
2026-04-22 18:14 33.44082 -112.00323 1132 ft 144 kts 271°
2026-04-22 18:15 33.44085 -112.01206 1127 ft 38 kts 270°
2026-04-22 18:15 33.44035 -112.01355 1127 ft 10 kts 218°
2026-04-22 18:15 33.43986 -112.01404 1126 ft 7 kts 220°
2026-04-22 18:15 33.43950 -112.01433 1125 ft 6 kts 195°
2026-04-22 18:16 33.43906 -112.01399 1126 ft 11 kts 110°
2026-04-22 18:16 33.43902 -112.01283 1127 ft 15 kts 92°
2026-04-22 18:16 33.43903 -112.01154 1127 ft 15 kts 88°
2026-04-22 18:16 33.43906 -112.01022 1127 ft 15 kts 88°
2026-04-22 18:17 33.43903 -112.00890 1127 ft 15 kts 92°
2026-04-22 18:17 33.43896 -112.00771 1130 ft 12 kts 120°
2026-04-22 18:17 33.43835 -112.00734 1129 ft 11 kts 179°
2026-04-22 18:17 33.43760 -112.00735 1128 ft 9 kts 192°
2026-04-22 18:18 33.43737 -112.00786 1127 ft 6 kts 268°
2026-04-22 18:18 33.43737 -112.00819 1127 ft 0 kts 270°